Flag for Equatorial Guinea Weather past 2 weeks in Ebebiyín, Equatorial Guinea

Now
70 °F

Broken clouds.


Feels Like: 70 °F
Forecast: 68 / 77 °F
Wind: 5 mph from West

Location: Yaounde Airport

Current Time: Oct 23, 2014 at 7:00:55 AM

Latest Report: Oct 23, 2014 at 6:00 AM


Visibility: 4 mi

Pressure: 30.01 "Hg

Humidity: 94%

Dew point: 68 °F

Location of EbebiyínLocation

Historic Weather in Ebebiyín — Graph

°F

Ebebiyín temperature yesterday

Maximum temperature yesterday: 84 °F (at 1:00 PM)
Minimum temperature yesterday: 68 °F (at 2:00 AM)
Average temperature yesterday: 73 °F

Past Weeks' High & Low Weather Summary

 TemperatureHumidityPressure
High88 °F (Oct 8, 3:00 PM)100% (Oct 8, 7:00 AM)30.12 "Hg (Oct 8, 7:00 AM)
Low66 °F (Oct 12, 1:00 AM)55% (Oct 9, 2:00 PM)29.86 "Hg (Oct 8, 5:00 PM)
Average74 °F84%30.00 "Hg
* Reported Oct 8 6:00 AM — Oct 23 6:00 AM, Ebebiyín, Weather by CustomWeather, © 2014

Note: Actual official high and low records may vary slightly from our data, if they occured in-between our weather recording intervals... More about our weather records

Advertising

Ebebiyín weather history for previous 24 hours

 ConditionsComfort  
Time TempWeatherWind HumidityBarometerVisibility
6:00 AM
Oct 23
70 °FBroken clouds.5 mph94%30.01 "Hg4 mi
5:00 AM70 °FPartly cloudy.5 mph94%30.01 "Hg4 mi
4:00 AM70 °FPartly cloudy.2 mph94%30.01 "Hg4 mi
3:00 AM70 °FPartly cloudy.5 mph94%30.01 "Hg4 mi
2:00 AM72 °FPartly cloudy.2 mph94%30.01 "HgN/A
1:00 AM72 °FPartly cloudy.3 mph94%30.01 "HgN/A
12:00 AM72 °FPartly cloudy.No wind94%30.01 "HgN/A
11:00 PM
Oct 22
72 °FPartly cloudy.5 mph94%30.01 "HgN/A
10:00 PM70 °FPartly cloudy.2 mph94%30.01 "HgN/A
9:00 PM70 °FPassing clouds.2 mph94%30.01 "HgN/A
8:00 PM70 °FPartly cloudy.No wind94%29.98 "HgN/A
7:00 PM72 °FThunderstorms. Partly cloudy.No wind88%29.98 "Hg4 mi
6:00 PM72 °FThunderstorms. Partly cloudy.7 mph88%29.98 "Hg4 mi
5:00 PM77 °FThunderstorms. Partly sunny.7 mph74%29.95 "HgN/A
4:00 PM81 °FPartly sunny.6 mph74%29.92 "HgN/A
3:00 PM82 °FPartly sunny.2 mph62%29.92 "HgN/A
2:00 PM81 °FPartly sunny.3 mph66%29.95 "HgN/A
1:00 PM84 °FPartly sunny.3 mph62%30.01 "HgN/A
12:00 PM79 °FPartly sunny.3 mph74%30.04 "HgN/A
11:00 AM81 °FPartly sunny.2 mph74%30.07 "HgN/A
10:00 AM77 °FPartly sunny.1 mph79%30.07 "Hg5 mi
9:00 AM73 °FPartly sunny.3 mph89%30.07 "Hg5 mi
8:00 AM70 °FBroken clouds.2 mph94%30.04 "Hg5 mi
7:00 AM68 °FBroken clouds.1 mph94%30.04 "Hg5 mi
Weather by CustomWeather, © 2014

See weather overviewHow to use our weather pages